Volver al catálogo

STARLINK-4399

ActivoComunicacionesSSO
NORAD 53469·PAYLOAD·🇺🇸 United States

Lanzado Aug 12, 2022 desde Vandenberg Space Force Base

Loading…

Próximos Pases (próximas 24 horas)

TLE

ActualizadoSource: CelesTrak SupGP

Época: Sep 15, 2026, 01:31 UTC

1 53469C 22099E   26258.06368056 -.00016887  00000+0 -52439-3 0  2581
2 53469  97.2861  15.8651 0000992  92.6725  13.5399 15.33438273    19

Sigue STARLINK-4399 en tiempo real con AllMySat

Download on the App Store